MM3NTX-13 Weather Reports


Display with metric or nautical units.
time (UTC)temp
F
wind
direction
speed
MPH
gust
MPH
rain 1hr
in
rain 24hr
in
rain mn
in
humidity
%
barometer
mb
20260503005422 47 135 0.0 2.0 0.04 0.37 0.05 99 1012.6
20260503004522 47 135 1.0 2.0 0.05 0.37 0.05 99 1012.5
20260503003622 47 147 1.0 2.0 0.04 0.35 0.04 99 1012.7
20260503000023 48 151 1.0 2.0 0.02 0.34 0.02 99 1013.0
20260502235121 49 158 1.0 2.0 0.01 0.33 0.01 99 1012.9
20260502234227 49 155 1.0 2.0 0.00 0.32 0.00 99 1012.9
20260502233322 49 0 0.0 0.0 0.01 0.32 0.00 99 1012.9
20260502230622 50 135 1.0 2.0 0.05 0.32 0.00 99 1012.8
20260502225722 50 135 1.0 2.0 0.06 0.32 0.32 99 1012.7
20260502224823 50 131 1.0 2.0 0.06 0.32 0.32 99 1013.0
20260502223922 50 144 2.0 2.0 0.06 0.32 0.32 99 1013.1
20260502223022 50 120 1.0 4.0 0.07 0.31 0.31 99 1012.8
20260502222122 51 122 1.0 2.0 0.07 0.30 0.30 99 1012.8
20260502221222 51 183 1.0 2.0 0.07 0.28 0.28 99 1012.8
20260502220322 51 0 0.0 0.0 0.07 0.26 0.26 99 1012.9
20260502215422 51 225 1.0 2.0 0.11 0.26 0.26 99 1012.6
20260502214522 51 225 0.0 2.0 0.19 0.26 0.26 99 1012.9
20260502213622 51 0 0.0 0.0 0.22 0.26 0.26 99 1012.7
20260502212722 51 0 0.0 0.0 0.20 0.22 0.22 98 1012.6
20260502210922 52 0 0.0 0.0 0.19 0.19 0.19 97 1013.0
20260502205122 52 150 2.0 2.0 0.12 0.12 0.12 95 1013.0
20260502204222 52 158 2.0 4.0 0.06 0.07 0.06 94 1013.1
20260502203322 53 149 2.0 4.0 0.02 0.04 0.02 91 1012.9
20260502202422 53 140 2.0 4.0 0.01 0.05 0.01 90 1012.8
20260502201523 54 141 2.0 4.0 0.00 0.07 0.00 88 1012.6
20260502200623 55 24 3.0 6.0 0.00 0.07 0.00 85 1012.7
20260502195722 55 4 2.0 6.0 0.00 0.07 0.00 83 1012.9
20260502194822 56 7 1.0 2.0 0.00 0.07 0.00 82 1012.6
20260502193922 55 23 0.0 2.0 0.00 0.07 0.00 80 1012.7
20260502193022 56 0 0.0 0.0 0.00 0.07 0.00 80 1012.5
20260502192122 56 1 0.0 2.0 0.00 0.09 0.00 79 1012.5
20260502191222 56 16 1.0 4.0 0.00 0.11 0.00 78 1012.2
20260502190322 56 1 0.0 2.0 0.00 0.11 0.00 79 1012.2
20260502185422 56 1 0.0 2.0 0.00 0.11 0.00 79 1012.3
20260502184522 57 1 1.0 2.0 0.00 0.11 0.00 79 1012.4
20260502181822 57 1 0.0 2.0 0.00 0.11 0.00 79 1012.2
20260502180922 57 353 1.0 4.0 0.00 0.11 0.00 78 1012.0
20260502163922 59 225 2.0 2.0 0.00 0.13 0.00 69 1012.0
20260502163022 59 225 1.0 2.0 0.00 0.13 0.00 70 1012.3
20260502162122 59 224 2.0 2.0 0.00 0.14 0.00 67 1012.1
20260502161222 60 206 1.0 2.0 0.00 0.14 0.00 66 1012.2
20260502160322 61 230 1.0 4.0 0.00 0.15 0.00 66 1012.1
20260502151822 62 248 1.0 4.0 0.00 0.20 0.00 64 1012.2
20260502150922 61 192 3.0 6.0 0.00 0.20 0.00 64 1012.1
20260502130322 61 276 2.0 2.0 0.00 0.20 0.00 71 1012.9
20260502123622 60 341 2.0 2.0 0.00 0.20 0.00 75 1013.2
20260502122723 59 263 2.0 2.0 0.00 0.20 0.00 75 1013.4
20260502120922 59 213 1.0 2.0 0.00 0.20 0.00 74 1013.7
20260502115122 60 197 3.0 4.0 0.00 0.20 0.00 73 1013.5
20260502113322 60 208 3.0 6.0 0.00 0.20 0.00 75 1013.6
20260502112422 59 245 3.0 6.0 0.00 0.20 0.00 75 1013.6
20260502111522 59 262 3.0 6.0 0.00 0.20 0.00 76 1013.5
20260502105722 62 259 2.0 4.0 0.00 0.20 0.00 76 1013.7
20260502104822 60 245 2.0 2.0 0.00 0.20 0.00 79 1013.7
20260502103922 60 241 2.0 4.0 0.00 0.20 0.00 77 1013.7
20260502103022 59 261 2.0 4.0 0.00 0.20 0.00 78 1013.8
20260502102122 59 259 2.0 4.0 0.00 0.20 0.00 80 1013.8
20260502101222 60 255 1.0 4.0 0.00 0.20 0.00 79 1013.6
20260502100322 58 270 2.0 4.0 0.00 0.20 0.00 81 1013.7
20260502090922 56 212 2.0 4.0 0.00 0.20 0.00 89 1013.7
20260502071222 48 203 0.0 2.0 0.00 0.20 0.00 99 1013.7
20260502070322 47 0 0.0 0.0 0.00 0.20 0.00 99 1013.7
20260502063622 46 0 0.0 0.0 0.00 0.20 0.00 99 1013.8
20260502062722 46 0 0.0 0.0 0.00 0.20 0.00 99 1013.8
20260502061822 45 0 0.0 0.0 0.00 0.20 0.00 99 1013.7
20260502060922 45 0 0.0 0.0 0.00 0.20 0.00 99 1013.8
20260502060022 44 0 0.0 0.0 0.00 0.20 0.00 99 1013.7
20260502055122 44 0 0.0 0.0 0.00 0.20 0.00 99 1013.6
20260502054222 44 0 0.0 0.0 0.00 0.20 0.00 99 1013.8
20260502053322 44 0 0.0 0.0 0.00 0.20 0.00 99 1013.9
20260502052422 44 0 0.0 0.0 0.00 0.20 0.00 99 1013.6
20260502051523 44 0 0.0 0.0 0.00 0.20 0.00 99 1013.7
20260502050622 44 0 0.0 0.0 0.00 0.20 0.00 99 1014.0
20260502045722 44 0 0.0 0.0 0.00 0.20 0.00 99 1013.7
20260502044822 43 0 0.0 0.0 0.00 0.20 0.00 99 1013.7
20260502043922 44 0 0.0 0.0 0.00 0.20 0.00 99 1013.7
20260502043022 44 0 0.0 0.0 0.00 0.20 0.00 99 1013.6
20260502042122 44 0 0.0 0.0 0.00 0.20 0.00 99 1013.9
20260502041222 44 0 0.0 0.0 0.00 0.20 0.00 99 1013.8
20260502040322 45 0 0.0 0.0 0.00 0.20 0.00 99 1014.0
20260502035422 45 0 0.0 0.0 0.00 0.20 0.00 99 1013.9
20260502034523 44 0 0.0 0.0 0.00 0.20 0.00 99 1013.9
20260502032722 44 203 0.0 2.0 0.00 0.20 0.00 99 1014.2
20260502031822 44 0 0.0 0.0 0.00 0.20 0.00 99 1014.4
20260502030922 44 0 0.0 0.0 0.00 0.20 0.00 99 1014.5
20260502030023 43 0 0.0 0.0 0.00 0.20 0.00 99 1014.4
20260502024222 44 0 0.0 0.0 0.00 0.20 0.00 99 1014.3
20260502022422 44 0 0.0 0.0 0.00 0.20 0.00 99 1014.6
20260502020622 44 0 0.0 0.0 0.00 0.20 0.00 99 1014.7
20260502015722 45 0 0.0 0.0 0.00 0.20 0.00 99 1014.8
20260502014822 45 0 0.0 0.0 0.00 0.20 0.00 99 1014.8
20260502013922 45 0 0.0 0.0 0.00 0.20 0.00 99 1015.0
20260502013023 45 0 0.0 0.0 0.00 0.20 0.00 99 1015.0
20260502012122 46 0 0.0 0.0 0.00 0.20 0.00 99 1015.1
20260502011222 46 0 0.0 0.0 0.00 0.20 0.00 99 1015.3